Tracking 29511 objects as of 15-Sep-2024
HD Live streaming from Space Station
objects crossing your sky now

STARLINK-4519

Track STARLINK-4519 now!
10-day predictions
STARLINK-4519 is classified as:


NORAD ID: 53439
Int'l Code: 2022-097BD
Perigee: 546.0 km
Apogee: 547.8 km
Inclination: 53.2 °
Period: 95.4 minutes
Semi major axis: 6917 km
RCS: Unknown
Launch date: August 10, 2022
Source: United States (US)
Launch site: AIR FORCE EASTERN TEST RANGE (AFETR)
Your satellite tracking list
Your tracking list is empty




NASA's NSSDC Master Catalog

Two Line Element Set (TLE):
1 53439U 22097BD  24259.01585352  .00019119  00000-0  12161-2 0  9999
2 53439  53.2186  11.0720 0001337  96.5960 263.5184 15.08838833116689
Source of the keplerian elements: AFSPC